Regional Weather Roundup
Issued by NWS

Home | Current Version | Previous Version | Text Only | Print | Product List | Glossary On
Versions: 1 2 3 4 5 6 7 8 9 10 11 12 13 14 15 16 17 18 19 20 21 22 23 24 25 26 27 28 29 30 31 32 33 34 35 36 37 38 39 40 41 42 43 44 45 46 47 48 49 50
000
ASUS45 KBOI 181510
RWRID
WEATHER ROUNDUP FOR IDAHO
NATIONAL WEATHER SERVICE BOISE ID
900 AM MDT SAT APR 18 2015

NOTE: "FAIR" INDICATES FEW OR NO CLOUDS BELOW 12000 FEET
WITH NO SIGNIFICANT WEATHER AND/OR OBSTRUCTIONS TO VISIBILITY

IDZ012-014-181600-
SOUTHWEST IDAHO


CITY           SKY/WX    TMP DP  RH WIND       PRES   REMARKS
BOISE          SUNNY     50  35  56 NW3       30.12R
CALDWELL       SUNNY     54  34  47 NW15      30.15R
MOUNTAIN HOME  SUNNY     53  32  44 NW24G31   30.08R
$$

IDZ016-017-181600-
SOUTHCENTRAL IDAHO


CITY           SKY/WX    TMP DP  RH WIND       PRES   REMARKS
BURLEY         SUNNY     51  31  46 W13G20    30.08R
JEROME         SUNNY     47  31  53 S8        30.10R
TWIN FALLS     SUNNY     53  30  41 SW16      30.10R
$$

IDZ019>023-181600-
SOUTHEAST IDAHO


CITY           SKY/WX    TMP DP  RH WIND       PRES   REMARKS
IDAHO FALLS    SUNNY     42  30  62 NE6       30.09S
POCATELLO      SUNNY     50  30  46 W13       30.10R
REXBURG        SUNNY     41  29  62 CALM      30.09S
$$

IDZ006-010-011-018-031-032-181600-
CENTRAL IDAHO MOUNTAINS


CITY           SKY/WX    TMP DP  RH WIND       PRES   REMARKS
MCCALL         SUNNY     44  30  57 N3        30.19R
HAILEY         SUNNY     54  25  32 NW12      30.11R
STANLEY          N/A     34  24  67 N3        30.21F
SALMON         SUNNY     39  28  65 CALM      30.18F
CHALLIS        SUNNY     43  24  47 E5        30.18S
$$

IDZ002-004-006-007-026-181600-
NORTHERN IDAHO


CITY           SKY/WX    TMP DP  RH WIND       PRES   REMARKS
LEWISTON       SUNNY     48  36  63 S7        30.24R
LOWELL           N/A     41  38  89 CALM      30.27R
COEUR D`ALENE  SUNNY     45  39  81 CALM      30.24R
MULLAN PASS    SUNNY     36  30  79 VRB5      30.20R WCI  32
$$


USA.gov is the U.S. government's official web portal to all federal, state and local government web resources and services.